Location: Unspecified
(0.0000°N, 0.0000°E)
Time: 01:37:13
(UTC+00:00)

Vanguard 2 - All Passes

Search period start: 20 February 2017 00:00
Search period end: 02 March 2017 00:00
Orbit: 553 x 2940 km, 32.9° (Epoch: 18 February)

Date Brightness Start Highest point End Pass type
(mag) Time Alt. Az. Time Alt. Az. Time Alt. Az.
20 Feb - 07:21:32 10° SSW 07:29:02 36° SE 07:40:39 10° ENE daylight
20 Feb - 09:28:52 10° WSW 09:39:29 76° NW 09:56:10 10° NE daylight
20 Feb - 11:40:45 10° W 11:53:08 34° NNW 12:08:23 10° NNE daylight
20 Feb - 13:59:43 10° NW 14:09:59 18° NNW 14:20:03 10° NNE daylight
20 Feb - 16:19:43 10° NNW 16:28:08 15° N 16:35:18 10° NE daylight
20 Feb - 18:32:28 10° NNW 18:43:11 28° NNE 18:50:29 10° ENE visible
20 Feb - 20:44:13 10° NW 20:54:26 82° NE 21:00:24 10° ESE visible
20 Feb - 22:59:07 10° WSW 23:02:42 15° SW 23:05:39 10° S night (unlit)
21 Feb - 07:39:10 10° SW 07:47:09 51° SE 08:00:13 10° ENE daylight
21 Feb - 09:47:26 10° WSW 09:58:09 59° NNW 10:14:30 10° NE daylight
21 Feb - 12:00:48 10° WNW 12:12:33 27° NNW 12:26:27 10° NNE daylight
21 Feb - 14:20:53 10° NW 14:30:14 16° N 14:39:12 10° NNE daylight
21 Feb - 16:38:15 10° NNW 16:48:04 18° NNE 16:56:01 10° NE daylight
21 Feb - 18:50:23 10° NW 19:02:15 37° NNE 19:09:48 10° E visible
21 Feb - 21:02:52 10° WNW 21:12:41 66° SW 21:18:30 10° SE visible
22 Feb - 05:52:19 10° S 05:56:12 15° SE 06:01:07 10° ESE visible
22 Feb - 07:57:02 10° SW 08:05:19 71° SE 08:19:19 10° ENE daylight
22 Feb - 10:06:19 10° W 10:17:01 45° NNW 10:32:40 10° NE daylight
22 Feb - 12:21:18 10° WNW 12:32:17 22° NNW 12:44:40 10° NNE daylight
22 Feb - 14:41:25 10° NNW 14:50:35 16° N 14:59:08 10° NNE daylight
22 Feb - 16:56:25 10° NNW 17:07:45 23° NNE 17:16:25 10° ENE daylight
22 Feb - 19:08:27 10° NW 19:21:05 51° NNE 19:28:42 10° ESE visible
22 Feb - 21:21:54 10° WNW 21:30:45 42° SW 21:36:17 10° SSE visible
23 Feb - 06:09:01 10° S 06:14:22 24° SE 06:22:00 10° E daylight
23 Feb - 08:15:09 10° WSW 08:23:37 86° NW 08:38:03 10° NE daylight
23 Feb - 10:25:35 10° W 10:36:06 35° NNW 10:50:45 10° NE daylight
23 Feb - 12:42:10 10° NW 12:52:15 19° NNW 13:03:12 10° NNE daylight
23 Feb - 15:01:03 10° NNW 15:10:52 17° N 15:19:44 10° NE daylight
23 Feb - 17:14:27 10° NNW 17:27:12 29° NNE 17:36:22 10° ENE daylight
23 Feb - 19:26:43 10° NW 19:39:42 71° NNE 19:47:14 10° ESE visible
23 Feb - 21:41:29 10° W 21:48:44 27° SW 21:53:44 10° SSE visible
24 Feb - 06:26:20 10° SSW 06:32:23 36° SE 06:41:56 10° ENE daylight
24 Feb - 08:33:33 10° WSW 08:42:08 64° NNW 08:56:30 10° NE daylight
24 Feb - 10:45:17 10° WNW 10:55:25 28° NNW 11:08:48 10° NNE daylight
24 Feb - 13:03:06 10° NW 13:12:28 17° N 13:22:17 10° NNE daylight
24 Feb - 15:19:56 10° NNW 15:30:58 19° NNE 15:40:34 10° NE daylight
24 Feb - 17:32:27 10° NW 17:46:24 37° NNE 17:55:52 10° E daylight
24 Feb - 19:45:15 10° WNW 19:58:05 84° SW 20:05:29 10° SE visible
24 Feb - 22:01:52 10° WSW 22:06:48 17° SW 22:10:38 10° S visible
25 Feb - 06:44:00 10° SW 06:50:26 55° SE 07:01:16 10° ENE daylight
25 Feb - 08:52:13 10° W 09:00:51 48° NNW 09:14:42 10° NE daylight
25 Feb - 11:05:27 10° WNW 11:15:00 22° NNW 11:26:56 10° NNE daylight
25 Feb - 13:23:38 10° NNW 13:32:49 16° N 13:42:08 10° NNE daylight
25 Feb - 15:38:21 10° NNW 15:50:50 23° NNE 16:01:13 10° ENE daylight
25 Feb - 17:50:32 10° NW 18:05:24 48° NNE 18:14:56 10° E daylight
25 Feb - 20:04:07 10° WNW 20:16:17 59° SW 20:23:29 10° SE visible
26 Feb - 04:57:27 10° SSE 05:00:11 13° SE 05:03:26 10° ESE visible
26 Feb - 07:01:56 10° SW 07:08:36 80° SE 07:20:09 10° ENE daylight
26 Feb - 09:11:16 10° W 09:19:49 36° NNW 09:32:47 10° NE daylight
26 Feb - 11:26:01 10° NW 11:34:50 18° N 11:45:17 10° NNE daylight
26 Feb - 13:43:26 10° NNW 13:53:10 17° N 14:02:47 10° NE daylight
26 Feb - 15:56:30 10° NNW 16:10:27 28° NNE 16:21:27 10° ENE daylight
26 Feb - 18:08:45 10° NW 18:24:10 64° NNE 18:33:40 10° ESE daylight
26 Feb - 20:23:25 10° WNW 20:34:22 41° SW 20:41:12 10° SSE visible
27 Feb - 05:13:59 10° S 05:18:15 23° SE 05:24:10 10° E visible
27 Feb - 07:20:09 10° WSW 07:26:57 72° NNW 07:38:41 10° NE daylight
27 Feb - 09:30:43 10° WNW 09:39:00 27° NNW 09:50:44 10° NNE daylight
27 Feb - 11:46:46 10° NW 11:54:54 16° N 12:04:08 10° NNE daylight
27 Feb - 14:02:29 10° NNW 14:13:23 19° NNE 14:23:51 10° NE daylight
27 Feb - 16:14:34 10° NW 16:29:47 36° NNE 16:41:13 10° E daylight
27 Feb - 18:27:11 10° NW 18:42:43 84° NE 18:52:05 10° ESE visible
27 Feb - 20:43:15 10° W 20:52:26 28° SW 20:58:39 10° SSE visible
28 Feb - 05:31:19 10° SSW 05:36:15 37° SE 05:43:49 10° ENE visible
28 Feb - 07:38:40 10° WSW 07:45:32 50° NNW 07:56:56 10° NE daylight
28 Feb - 09:50:39 10° WNW 09:58:23 21° NNW 10:08:40 10° NNE daylight
28 Feb - 12:07:18 10° NNW 12:15:08 15° N 12:23:45 10° NNE daylight
28 Feb - 14:20:59 10° NNW 14:33:22 22° NNE 14:44:51 10° ENE daylight
28 Feb - 16:32:38 10° NW 16:48:54 46° NNE 17:00:33 10° E daylight
28 Feb - 18:45:53 10° WNW 19:01:05 74° SW 19:10:15 10° SE visible
28 Feb - 21:03:51 10° W 21:10:36 18° SW 21:15:39 10° S visible
01 Mar - 05:49:02 10° SW 05:54:18 61° SE 06:02:54 10° ENE visible
01 Mar - 07:57:33 10° W 08:04:19 35° NNW 08:14:58 10° NE daylight
01 Mar - 10:11:02 10° NW 10:18:01 17° N 10:26:42 10° NNE daylight
01 Mar - 12:27:09 10° NNW 12:35:26 15° N 12:44:21 10° NE daylight
01 Mar - 14:39:10 10° NNW 14:53:05 27° NNE 15:05:30 10° ENE daylight
01 Mar - 16:50:48 10° NW 17:07:48 59° NNE 17:19:31 10° ESE daylight
01 Mar - 19:04:56 10° WNW 19:19:18 55° SW 19:28:10 10° SE visible
01 Mar - 21:26:03 10° WSW 21:28:56 12° SW 21:31:29 10° SSW visible
